Location: ??????
(55.7522°N, 37.6156°E)
Time: 18:01:02
(UTC+00:00)

SL-4 R/B - Pass Details

Date: 14 June 2025
Orbit: 393 x 546 km, 51.6° (Epoch: 12 July)

Event Time Altitude Azimuth Distance (km) Brightness Sun altitude
Rises 22:24:10 0° 253° (WSW) 2,687 5.2 -10.1°
Reaches altitude 10° 22:26:30 10° 248° (WSW) 1,780 4.3 -10.0°
Maximum altitude 22:30:22 45° 175° (S) 711 2.2 -9.9°
Drops below altitude 10° 22:34:05 10° 102° (ESE) 1,707 4.6 -9.8°
Sets 22:36:16 0° 96° (E) 2,563 5.6 -9.7°
